Time,TemperatureF,DewpointF,PressureIn,WindDirection,WindDirectionDegrees,WindSpeedMPH,WindSpeedGustMPH,Humidity,HourlyPrecipIn,Conditions,Clouds,dailyrainin,SoftwareType,DateUTC
2012-10-09 00:00:00,50.6,43.7,30.02,WSW,248,0.0,0.0,77,0.00,,,0.00,WUHU216HW,2012-10-09 07:00:00,
2012-10-09 00:05:00,50.4,43.5,30.02,WSW,248,0.0,0.0,77,0.00,,,0.00,WUHU216HW,2012-10-09 07:05:00,
2012-10-09 00:10:00,50.4,43.5,30.02,WSW,248,0.0,0.2,77,0.00,,,0.00,WUHU216HW,2012-10-09 07:10:00,
2012-10-09 00:15:00,50.4,43.5,30.02,WSW,248,0.0,0.2,77,0.00,,,0.00,WUHU216HW,2012-10-09 07:15:00,
2012-10-09 00:20:00,50.2,43.3,30.02,WSW,248,0.0,0.0,77,0.00,,,0.00,WUHU216HW,2012-10-09 07:20:00,
2012-10-09 00:25:00,50.2,43.3,30.02,WSW,248,0.4,0.9,77,0.00,,,0.00,WUHU216HW,2012-10-09 07:25:00,
2012-10-09 00:30:00,50.0,43.1,30.02,WSW,248,1.1,1.1,77,0.00,,,0.00,WUHU216HW,2012-10-09 07:30:00,
2012-10-09 00:36:00,50.0,43.1,30.03,WSW,248,0.4,1.1,77,0.00,,,0.00,WUHU216HW,2012-10-09 07:36:00,
2012-10-09 00:41:00,50.0,43.4,30.03,SW,225,1.1,1.8,78,0.00,,,0.00,WUHU216HW,2012-10-09 07:41:00,
2012-10-09 00:46:00,49.9,43.2,30.03,WSW,248,0.4,1.8,78,0.00,,,0.00,WUHU216HW,2012-10-09 07:46:00,
2012-10-09 00:51:00,49.7,43.0,30.03,WSW,248,0.0,1.8,78,0.00,,,0.00,WUHU216HW,2012-10-09 07:51:00,
2012-10-09 00:56:00,49.7,43.0,30.04,WSW,248,0.0,0.9,78,0.00,,,0.00,WUHU216HW,2012-10-09 07:56:00,
2012-10-09 01:01:00,49.7,43.0,30.04,SSW,203,0.0,0.9,78,0.00,,,0.00,WUHU216HW,2012-10-09 08:01:00,
2012-10-09 01:06:00,49.5,42.8,30.04,SSW,203,0.7,1.1,78,0.00,,,0.00,WUHU216HW,2012-10-09 08:06:00,
2012-10-09 01:11:00,49.5,42.8,30.04,SW,225,0.4,1.1,78,0.00,,,0.00,WUHU216HW,2012-10-09 08:11:00,
2012-10-09 01:16:00,49.3,43.0,30.04,SW,225,1.6,2.0,79,0.00,,,0.00,WUHU216HW,2012-10-09 08:16:00,
2012-10-09 01:21:00,49.3,43.0,30.04,SW,225,1.1,2.0,79,0.00,,,0.00,WUHU216HW,2012-10-09 08:21:00,
2012-10-09 01:26:00,49.1,42.8,30.04,SW,225,1.6,2.2,79,0.00,,,0.00,WUHU216HW,2012-10-09 08:26:00,
2012-10-09 01:31:00,49.1,43.2,30.04,WSW,248,1.3,2.2,80,0.00,,,0.00,WUHU216HW,2012-10-09 08:31:00,
2012-10-09 01:36:00,49.1,43.2,30.04,WSW,248,1.8,2.2,80,0.00,,,0.00,WUHU216HW,2012-10-09 08:36:00,
2012-10-09 01:41:00,49.1,43.5,30.04,SW,225,0.4,2.2,81,0.00,,,0.00,WUHU216HW,2012-10-09 08:41:00,
2012-10-09 01:46:00,49.1,43.5,30.04,SSW,203,2.9,2.9,81,0.00,,,0.00,WUHU216HW,2012-10-09 08:46:00,
2012-10-09 01:51:00,49.3,44.0,30.05,SSW,203,1.1,3.8,82,0.00,,,0.00,WUHU216HW,2012-10-09 08:51:00,
2012-10-09 01:56:00,49.5,44.2,30.05,SW,225,3.1,4.0,82,0.00,,,0.00,WUHU216HW,2012-10-09 08:56:00,
2012-10-09 02:01:00,49.7,44.6,30.05,SW,225,1.6,4.7,83,0.00,,,0.00,WUHU216HW,2012-10-09 09:01:00,
2012-10-09 02:06:00,49.7,44.4,30.05,SW,225,1.8,4.7,82,0.00,,,0.00,WUHU216HW,2012-10-09 09:06:00,
2012-10-09 02:11:00,49.9,44.8,30.05,SW,225,0.9,6.3,83,0.00,,,0.00,WUHU216HW,2012-10-09 09:11:00,
2012-10-09 02:16:00,50.0,45.0,30.05,West,270,4.3,6.3,83,0.00,,,0.00,WUHU216HW,2012-10-09 09:16:00,
2012-10-09 02:21:00,50.0,45.0,30.05,WSW,248,1.1,4.3,83,0.00,,,0.00,WUHU216HW,2012-10-09 09:21:00,
2012-10-09 02:26:00,50.2,45.2,30.05,SW,225,3.1,4.3,83,0.00,,,0.00,WUHU216HW,2012-10-09 09:26:00,
2012-10-09 02:31:00,50.4,45.4,30.05,SW,225,1.8,4.3,83,0.00,,,0.00,WUHU216HW,2012-10-09 09:31:00,
2012-10-09 02:36:00,50.4,45.4,30.05,WSW,248,1.1,3.1,83,0.00,,,0.00,WUHU216HW,2012-10-09 09:36:00,
2012-10-09 02:41:00,50.6,45.5,30.05,SW,225,2.9,2.9,83,0.00,,,0.00,WUHU216HW,2012-10-09 09:41:00,
2012-10-09 02:46:00,50.6,45.5,30.05,SW,225,0.4,2.9,83,0.00,,,0.00,WUHU216HW,2012-10-09 09:46:00,
2012-10-09 02:51:00,50.8,45.7,30.05,SSW,203,6.5,6.5,83,0.00,,,0.00,WUHU216HW,2012-10-09 09:51:00,
2012-10-09 02:56:00,50.8,45.7,30.05,SW,225,6.0,6.5,83,0.00,,,0.00,WUHU216HW,2012-10-09 09:56:00,
2012-10-09 03:01:00,50.8,45.7,30.05,West,270,1.1,6.5,83,0.00,,,0.00,WUHU216HW,2012-10-09 10:01:00,
2012-10-09 03:06:00,50.8,45.7,30.05,West,270,0.4,6.0,83,0.00,,,0.00,WUHU216HW,2012-10-09 10:06:00,
2012-10-09 03:11:00,50.9,45.9,30.05,SSW,203,1.1,4.7,83,0.00,,,0.00,WUHU216HW,2012-10-09 10:11:00,
2012-10-09 03:16:00,50.9,45.9,30.06,WSW,248,0.0,4.7,83,0.00,,,0.00,WUHU216HW,2012-10-09 10:16:00,
2012-10-09 03:21:00,50.9,45.9,30.06,SW,225,1.8,4.0,83,0.00,,,0.00,WUHU216HW,2012-10-09 10:21:00,
2012-10-09 03:26:00,50.9,45.9,30.06,WSW,248,1.1,3.1,83,0.00,,,0.00,WUHU216HW,2012-10-09 10:26:00,
2012-10-09 03:31:00,51.1,46.1,30.06,SW,225,3.8,4.7,83,0.00,,,0.00,WUHU216HW,2012-10-09 10:31:00,
2012-10-09 03:36:00,51.1,46.1,30.06,West,270,0.2,4.7,83,0.00,,,0.00,WUHU216HW,2012-10-09 10:36:00,
2012-10-09 03:41:00,51.3,46.3,30.06,SW,225,2.7,4.7,83,0.00,,,0.00,WUHU216HW,2012-10-09 10:41:00,
2012-10-09 03:46:00,51.3,46.3,30.05,SW,225,0.7,4.7,83,0.00,,,0.00,WUHU216HW,2012-10-09 10:46:00,
2012-10-09 03:51:00,51.3,46.3,30.05,SSW,203,2.0,3.1,83,0.00,,,0.00,WUHU216HW,2012-10-09 10:51:00,
2012-10-09 03:56:00,51.3,46.3,30.06,WSW,248,0.0,3.6,83,0.00,,,0.00,WUHU216HW,2012-10-09 10:56:00,
2012-10-09 04:01:00,51.3,46.0,30.06,WSW,248,0.0,3.6,82,0.00,,,0.00,WUHU216HW,2012-10-09 11:01:00,
2012-10-09 04:06:00,51.5,46.2,30.06,SW,225,1.1,2.7,82,0.00,,,0.00,WUHU216HW,2012-10-09 11:06:00,
2012-10-09 04:11:00,51.5,46.2,30.06,SSW,203,1.1,2.7,82,0.00,,,0.00,WUHU216HW,2012-10-09 11:11:00,
2012-10-09 04:16:00,51.5,46.2,30.06,SSW,203,0.0,2.2,82,0.00,,,0.00,WUHU216HW,2012-10-09 11:16:00,
2012-10-09 04:21:00,51.5,46.2,30.06,SW,225,0.4,2.0,82,0.00,,,0.00,WUHU216HW,2012-10-09 11:21:00,
2012-10-09 04:26:00,51.5,46.2,30.06,SW,225,2.0,3.4,82,0.00,,,0.00,WUHU216HW,2012-10-09 11:26:00,
2012-10-09 04:31:00,51.5,46.2,30.07,SSW,203,0.0,3.4,82,0.00,,,0.00,WUHU216HW,2012-10-09 11:31:00,
2012-10-09 04:36:00,51.5,46.2,30.06,West,270,0.4,1.8,82,0.00,,,0.00,WUHU216HW,2012-10-09 11:36:00,
2012-10-09 04:41:00,51.5,46.2,30.06,WSW,248,1.3,4.5,82,0.00,,,0.00,WUHU216HW,2012-10-09 11:41:00,
2012-10-09 04:46:00,51.5,46.2,30.06,SW,225,1.8,4.5,82,0.00,,,0.00,WUHU216HW,2012-10-09 11:46:00,
2012-10-09 04:51:00,51.5,46.2,30.06,SW,225,1.3,3.8,82,0.00,,,0.00,WUHU216HW,2012-10-09 11:51:00,
2012-10-09 04:56:00,51.5,46.2,30.05,SSW,203,1.1,3.8,82,0.00,,,0.00,WUHU216HW,2012-10-09 11:56:00,
2012-10-09 05:01:00,51.5,46.2,30.06,WSW,248,0.9,3.4,82,0.00,,,0.00,WUHU216HW,2012-10-09 12:01:00,
2012-10-09 05:03:00,51.5,46.2,30.06,North,0,0.9,3.6,82,0.00,,,0.00,WUHU216HW,2012-10-09 12:03:00,
2012-10-09 05:08:00,51.5,46.2,30.06,WSW,248,1.6,4.0,82,0.00,,,0.00,WUHU216HW,2012-10-09 12:08:00,
2012-10-09 05:13:00,51.5,46.2,30.06,SW,225,1.3,4.0,82,0.00,,,0.00,WUHU216HW,2012-10-09 12:13:00,
2012-10-09 05:18:00,51.5,46.2,30.06,WSW,248,1.8,3.4,82,0.00,,,0.00,WUHU216HW,2012-10-09 12:18:00,
2012-10-09 05:23:00,51.5,46.2,30.06,SSW,203,1.1,3.4,82,0.00,,,0.00,WUHU216HW,2012-10-09 12:23:00,
2012-10-09 05:28:00,51.5,46.2,30.06,SSW,203,0.0,3.4,82,0.00,,,0.00,WUHU216HW,2012-10-09 12:28:00,
2012-10-09 05:33:00,51.5,46.2,30.06,SSW,203,0.0,2.5,82,0.00,,,0.00,WUHU216HW,2012-10-09 12:33:00,
2012-10-09 05:38:00,51.5,46.2,30.07,West,270,1.1,2.2,82,0.00,,,0.00,WUHU216HW,2012-10-09 12:38:00,
2012-10-09 05:43:00,51.5,46.2,30.07,WSW,248,1.1,2.7,82,0.00,,,0.00,WUHU216HW,2012-10-09 12:43:00,
2012-10-09 05:48:00,51.5,46.2,30.07,SSW,203,1.8,2.7,82,0.00,,,0.00,WUHU216HW,2012-10-09 12:48:00,
2012-10-09 05:53:00,51.5,46.2,30.07,SW,225,0.9,3.8,82,0.00,,,0.00,WUHU216HW,2012-10-09 12:53:00,
2012-10-09 05:58:00,51.5,46.2,30.07,West,270,0.2,4.7,82,0.00,,,0.00,WUHU216HW,2012-10-09 12:58:00,
2012-10-09 06:03:00,51.5,46.2,30.07,West,270,0.4,4.7,82,0.00,,,0.00,WUHU216HW,2012-10-09 13:03:00,
2012-10-09 06:08:00,51.5,46.2,30.07,SW,225,1.6,2.9,82,0.00,,,0.00,WUHU216HW,2012-10-09 13:08:00,
2012-10-09 06:13:00,51.5,46.2,30.07,West,270,0.0,2.9,82,0.00,,,0.00,WUHU216HW,2012-10-09 13:13:00,
2012-10-09 06:18:00,51.5,46.2,30.07,West,270,0.0,2.5,82,0.00,,,0.00,WUHU216HW,2012-10-09 13:18:00,
2012-10-09 06:23:00,51.5,46.2,30.07,WSW,248,1.1,2.0,82,0.00,,,0.00,WUHU216HW,2012-10-09 13:23:00,
2012-10-09 06:28:00,51.5,46.2,30.07,WSW,248,0.9,2.0,82,0.00,,,0.00,WUHU216HW,2012-10-09 13:28:00,
2012-10-09 06:33:00,51.5,46.2,30.07,WSW,248,0.2,2.5,82,0.00,,,0.00,WUHU216HW,2012-10-09 13:33:00,
2012-10-09 06:38:00,51.5,46.2,30.07,WSW,248,0.4,2.5,82,0.00,,,0.00,WUHU216HW,2012-10-09 13:38:00,
2012-10-09 06:43:00,51.5,46.2,30.07,WSW,248,1.8,3.4,82,0.00,,,0.00,WUHU216HW,2012-10-09 13:43:00,
2012-10-09 06:48:00,51.5,46.2,30.07,WSW,248,1.1,3.4,82,0.00,,,0.00,WUHU216HW,2012-10-09 13:48:00,
2012-10-09 06:53:00,51.5,46.2,30.07,SSW,203,0.0,2.7,82,0.00,,,0.00,WUHU216HW,2012-10-09 13:53:00,
2012-10-09 06:58:00,51.5,46.2,30.07,SSW,203,0.0,2.2,82,0.00,,,0.00,WUHU216HW,2012-10-09 13:58:00,
2012-10-09 07:03:00,51.5,46.2,30.07,NNW,338,0.4,1.6,82,0.00,,,0.00,WUHU216HW,2012-10-09 14:03:00,
2012-10-09 07:08:00,51.5,46.2,30.08,SW,225,0.4,2.9,82,0.00,,,0.00,WUHU216HW,2012-10-09 14:08:00,
2012-10-09 07:13:00,51.5,46.2,30.08,SW,225,1.1,4.0,82,0.00,,,0.00,WUHU216HW,2012-10-09 14:13:00,
2012-10-09 07:18:00,51.3,46.0,30.07,SW,225,0.4,4.0,82,0.00,,,0.00,WUHU216HW,2012-10-09 14:18:00,
2012-10-09 07:23:00,51.1,45.8,30.08,SW,225,0.4,3.1,82,0.00,,,0.00,WUHU216HW,2012-10-09 14:23:00,
2012-10-09 07:28:00,51.1,45.8,30.08,SW,225,1.8,2.2,82,0.00,,,0.00,WUHU216HW,2012-10-09 14:28:00,
2012-10-09 07:33:00,51.1,45.8,30.08,SW,225,1.1,2.2,82,0.00,,,0.00,WUHU216HW,2012-10-09 14:33:00,
2012-10-09 07:38:00,51.1,45.8,30.08,SW,225,0.7,2.2,82,0.00,,,0.00,WUHU216HW,2012-10-09 14:38:00,
2012-10-09 07:43:00,51.1,45.8,30.08,SE,135,0.2,1.1,82,0.00,,,0.00,WUHU216HW,2012-10-09 14:43:00,
2012-10-09 07:48:00,51.3,46.0,30.08,SE,135,0.2,1.1,82,0.00,,,0.00,WUHU216HW,2012-10-09 14:48:00,
2012-10-09 07:53:00,51.1,45.8,30.08,SW,225,0.0,1.6,82,0.00,,,0.00,WUHU216HW,2012-10-09 14:53:00,
2012-10-09 07:57:00,51.3,46.0,30.09,SW,225,1.3,2.5,82,0.00,,,0.00,WUHU216HW,2012-10-09 14:57:00,
2012-10-09 08:03:00,51.3,46.0,30.09,SW,225,1.3,2.5,82,0.00,,,0.00,WUHU216HW,2012-10-09 15:03:00,
2012-10-09 08:08:00,51.3,46.0,30.09,WSW,248,1.1,3.1,82,0.00,,,0.00,WUHU216HW,2012-10-09 15:08:00,
2012-10-09 08:13:00,51.3,46.0,30.09,SW,225,0.0,3.1,82,0.00,,,0.00,WUHU216HW,2012-10-09 15:13:00,
2012-10-09 08:18:00,51.3,46.0,30.09,WSW,248,2.2,2.2,82,0.00,,,0.00,WUHU216HW,2012-10-09 15:18:00,
2012-10-09 08:23:00,51.1,45.8,30.09,SSW,203,0.4,2.7,82,0.00,,,0.00,WUHU216HW,2012-10-09 15:23:00,
2012-10-09 08:28:00,51.3,46.0,30.09,WSW,248,1.6,2.7,82,0.00,,,0.00,WUHU216HW,2012-10-09 15:28:00,
2012-10-09 08:33:00,51.3,46.0,30.10,SW,225,1.6,2.5,82,0.00,,,0.00,WUHU216HW,2012-10-09 15:33:00,
2012-10-09 08:37:00,51.3,46.0,30.10,SW,225,1.3,2.5,82,0.00,,,0.00,WUHU216HW,2012-10-09 15:37:00,
2012-10-09 08:42:00,51.3,46.0,30.10,SW,225,0.9,2.9,82,0.00,,,0.00,WUHU216HW,2012-10-09 15:42:00,
2012-10-09 08:47:00,51.3,46.0,30.10,WSW,248,0.0,2.9,82,0.00,,,0.00,WUHU216HW,2012-10-09 15:47:00,
2012-10-09 08:52:00,51.5,46.2,30.10,SSW,203,0.4,0.9,82,0.00,,,0.00,WUHU216HW,2012-10-09 15:52:00,
2012-10-09 08:57:00,51.5,46.2,30.10,WSW,248,0.0,1.8,82,0.00,,,0.00,WUHU216HW,2012-10-09 15:57:00,
2012-10-09 09:02:00,51.5,46.2,30.10,SSW,203,0.0,1.8,82,0.00,,,0.00,WUHU216HW,2012-10-09 16:02:00,
2012-10-09 09:07:00,51.5,46.2,30.10,South,180,1.1,1.3,82,0.00,,,0.00,WUHU216HW,2012-10-09 16:07:00,
2012-10-09 09:12:00,51.7,46.4,30.10,South,180,0.0,1.3,82,0.00,,,0.00,WUHU216HW,2012-10-09 16:12:00,
2012-10-09 09:17:00,51.8,46.5,30.10,WSW,248,1.8,1.8,82,0.00,,,0.00,WUHU216HW,2012-10-09 16:17:00,
2012-10-09 09:22:00,51.8,46.5,30.10,SW,225,1.1,1.8,82,0.00,,,0.00,WUHU216HW,2012-10-09 16:22:00,
2012-10-09 09:27:00,51.8,46.5,30.10,SW,225,0.4,1.8,82,0.00,,,0.00,WUHU216HW,2012-10-09 16:27:00,
2012-10-09 09:32:00,51.8,46.5,30.10,North,0,0.0,1.1,82,0.00,,,0.00,WUHU216HW,2012-10-09 16:32:00,
2012-10-09 09:37:00,52.0,46.7,30.10,ENE,68,0.9,2.5,82,0.00,,,0.00,WUHU216HW,2012-10-09 16:37:00,
2012-10-09 09:42:00,52.0,46.7,30.11,SW,225,2.5,2.5,82,0.00,,,0.00,WUHU216HW,2012-10-09 16:42:00,
2012-10-09 09:47:00,52.0,46.7,30.11,NE,45,0.4,3.4,82,0.00,,,0.00,WUHU216HW,2012-10-09 16:47:00,
2012-10-09 09:52:00,52.2,46.9,30.11,NNE,23,0.4,3.4,82,0.00,,,0.00,WUHU216HW,2012-10-09 16:52:00,
2012-10-09 09:57:00,52.0,47.0,30.11,South,180,1.6,2.2,83,0.00,,,0.00,WUHU216HW,2012-10-09 16:57:00,
2012-10-09 10:02:00,52.0,46.7,30.11,NE,45,1.1,1.6,82,0.00,,,0.00,WUHU216HW,2012-10-09 17:02:00,
2012-10-09 10:07:00,52.2,46.9,30.11,SSW,203,2.0,2.0,82,0.00,,,0.00,WUHU216HW,2012-10-09 17:07:00,
2012-10-09 10:12:00,52.2,46.9,30.11,ESE,113,0.4,3.4,82,0.00,,,0.00,WUHU216HW,2012-10-09 17:12:00,
2012-10-09 10:17:00,52.4,47.1,30.11,ESE,113,0.4,3.4,82,0.00,,,0.00,WUHU216HW,2012-10-09 17:17:00,
2012-10-09 10:23:00,52.6,47.3,30.11,SW,225,0.4,1.3,82,0.00,,,0.00,WUHU216HW,2012-10-09 17:23:00,
2012-10-09 10:28:00,52.6,47.3,30.11,NNE,23,0.9,1.6,82,0.00,,,0.00,WUHU216HW,2012-10-09 17:28:00,
2012-10-09 10:33:00,52.4,47.1,30.11,NE,45,0.4,1.6,82,0.00,,,0.00,WUHU216HW,2012-10-09 17:33:00,
2012-10-09 10:38:00,52.6,47.3,30.11,NE,45,1.6,1.6,82,0.00,,,0.00,WUHU216HW,2012-10-09 17:38:00,
2012-10-09 10:43:00,52.6,47.3,30.10,WSW,248,0.9,1.6,82,0.00,,,0.00,WUHU216HW,2012-10-09 17:43:00,
2012-10-09 10:48:00,52.7,47.4,30.11,SSE,158,0.4,4.0,82,0.00,,,0.00,WUHU216HW,2012-10-09 17:48:00,
2012-10-09 10:53:00,52.7,47.4,30.10,SW,225,2.9,4.0,82,0.00,,,0.00,WUHU216HW,2012-10-09 17:53:00,
2012-10-09 10:58:00,52.9,47.3,30.10,SSW,203,4.0,4.5,81,0.00,,,0.00,WUHU216HW,2012-10-09 17:58:00,
2012-10-09 11:03:00,52.9,47.3,30.11,West,270,0.7,4.5,81,0.00,,,0.00,WUHU216HW,2012-10-09 18:03:00,
2012-10-09 11:08:00,52.9,47.3,30.10,NE,45,0.4,4.3,81,0.00,,,0.00,WUHU216HW,2012-10-09 18:08:00,
2012-10-09 11:13:00,52.9,47.3,30.10,ENE,68,3.1,3.1,81,0.00,,,0.00,WUHU216HW,2012-10-09 18:13:00,
2012-10-09 11:18:00,52.9,47.3,30.10,ENE,68,1.1,3.1,81,0.00,,,0.00,WUHU216HW,2012-10-09 18:18:00,
2012-10-09 11:23:00,53.1,47.4,30.10,ENE,68,1.3,3.1,81,0.00,,,0.00,WUHU216HW,2012-10-09 18:23:00,
2012-10-09 11:28:00,53.1,47.4,30.10,NE,45,0.9,3.8,81,0.00,,,0.00,WUHU216HW,2012-10-09 18:28:00,
2012-10-09 11:33:00,53.1,47.4,30.10,SW,225,0.2,3.8,81,0.00,,,0.00,WUHU216HW,2012-10-09 18:33:00,
2012-10-09 11:38:00,53.3,47.3,30.10,WSW,248,2.0,2.2,80,0.00,,,0.00,WUHU216HW,2012-10-09 18:38:00,
2012-10-09 11:43:00,53.5,47.5,30.10,WSW,248,1.1,4.7,80,0.00,,,0.00,WUHU216HW,2012-10-09 18:43:00,
2012-10-09 11:48:00,53.6,47.7,30.10,WSW,248,2.5,4.7,80,0.00,,,0.00,WUHU216HW,2012-10-09 18:48:00,
2012-10-09 11:53:00,53.6,47.7,30.10,NE,45,2.5,3.6,80,0.00,,,0.00,WUHU216HW,2012-10-09 18:53:00,
2012-10-09 11:58:00,53.6,47.7,30.10,ENE,68,3.1,3.6,80,0.00,,,0.00,WUHU216HW,2012-10-09 18:58:00,
2012-10-09 12:03:00,53.6,47.7,30.10,ESE,113,0.4,3.4,80,0.00,,,0.00,WUHU216HW,2012-10-09 19:03:00,
2012-10-09 12:08:00,53.6,47.7,30.10,ENE,68,0.4,3.4,80,0.00,,,0.00,WUHU216HW,2012-10-09 19:08:00,
2012-10-09 12:13:00,53.8,47.9,30.10,NNE,23,0.4,2.9,80,0.00,,,0.00,WUHU216HW,2012-10-09 19:13:00,
2012-10-09 12:18:00,54.0,48.1,30.10,NNE,23,1.1,2.9,80,0.00,,,0.00,WUHU216HW,2012-10-09 19:18:00,
2012-10-09 12:23:00,54.4,48.3,30.10,ENE,68,2.2,2.2,80,0.00,,,0.00,WUHU216HW,2012-10-09 19:23:00,
2012-10-09 12:28:00,54.4,48.0,30.10,NNE,23,1.3,4.5,79,0.00,,,0.00,WUHU216HW,2012-10-09 19:28:00,
2012-10-09 12:33:00,54.4,48.0,30.10,East,90,1.6,4.5,79,0.00,,,0.00,WUHU216HW,2012-10-09 19:33:00,
2012-10-09 12:38:00,54.4,48.0,30.10,NNE,23,2.2,2.9,79,0.00,,,0.00,WUHU216HW,2012-10-09 19:38:00,
2012-10-09 12:43:00,54.5,48.2,30.09,ENE,68,2.7,4.5,79,0.00,,,0.00,WUHU216HW,2012-10-09 19:43:00,
2012-10-09 12:47:00,54.7,48.3,30.09,North,0,1.6,4.5,79,0.00,,,0.00,WUHU216HW,2012-10-09 19:47:00,
2012-10-09 12:52:00,54.7,48.0,30.09,North,0,2.9,4.3,78,0.00,,,0.00,WUHU216HW,2012-10-09 19:52:00,
2012-10-09 12:58:00,54.9,48.2,30.09,NE,45,2.0,4.3,78,0.00,,,0.00,WUHU216HW,2012-10-09 19:58:00,
2012-10-09 13:03:00,54.9,48.2,30.09,SE,135,2.5,4.0,78,0.00,,,0.00,WUHU216HW,2012-10-09 20:03:00,
2012-10-09 13:08:00,55.1,48.3,30.09,ESE,113,2.5,4.3,78,0.00,,,0.00,WUHU216HW,2012-10-09 20:08:00,
2012-10-09 13:13:00,55.3,48.5,30.09,ESE,113,1.6,4.3,78,0.00,,,0.00,WUHU216HW,2012-10-09 20:13:00,
2012-10-09 13:18:00,55.4,49.0,30.08,East,90,2.7,2.9,79,0.00,,,0.00,WUHU216HW,2012-10-09 20:18:00,
2012-10-09 13:23:00,55.6,48.8,30.08,East,90,1.8,3.6,78,0.00,,,0.00,WUHU216HW,2012-10-09 20:23:00,
2012-10-09 13:28:00,55.8,49.0,30.08,ESE,113,1.8,4.0,78,0.00,,,0.00,WUHU216HW,2012-10-09 20:28:00,
2012-10-09 13:33:00,55.8,49.0,30.08,NNE,23,0.4,4.0,78,0.00,,,0.00,WUHU216HW,2012-10-09 20:33:00,
2012-10-09 13:38:00,56.0,49.1,30.08,ESE,113,3.4,3.4,78,0.00,,,0.00,WUHU216HW,2012-10-09 20:38:00,
2012-10-09 13:43:00,56.2,49.0,30.07,NE,45,1.1,3.4,77,0.00,,,0.00,WUHU216HW,2012-10-09 20:43:00,
2012-10-09 13:48:00,56.3,49.1,30.07,NE,45,0.4,2.7,77,0.00,,,0.00,WUHU216HW,2012-10-09 20:48:00,
2012-10-09 13:53:00,56.5,49.3,30.07,ESE,113,1.1,3.4,77,0.00,,,0.00,WUHU216HW,2012-10-09 20:53:00,
2012-10-09 13:58:00,57.1,49.9,30.07,ESE,113,1.8,4.0,77,0.00,,,0.00,WUHU216HW,2012-10-09 20:58:00,
2012-10-09 14:03:00,57.2,49.7,30.07,ENE,68,1.1,4.0,76,0.00,,,0.00,WUHU216HW,2012-10-09 21:03:00,
2012-10-09 14:08:00,57.2,49.3,30.07,NE,45,5.4,5.4,75,0.00,,,0.00,WUHU216HW,2012-10-09 21:08:00,
2012-10-09 14:13:00,57.2,49.3,30.07,NNE,23,1.8,5.4,75,0.00,,,0.00,WUHU216HW,2012-10-09 21:13:00,
2012-10-09 14:18:00,57.2,49.3,30.06,East,90,1.8,5.4,75,0.00,,,0.00,WUHU216HW,2012-10-09 21:18:00,
2012-10-09 14:23:00,57.4,49.5,30.06,East,90,3.4,4.5,75,0.00,,,0.00,WUHU216HW,2012-10-09 21:23:00,
2012-10-09 14:27:00,57.2,49.0,30.06,ESE,113,3.4,5.1,74,0.00,,,0.00,WUHU216HW,2012-10-09 21:27:00,
2012-10-09 14:32:00,56.9,48.6,30.06,ESE,113,1.1,5.1,74,0.00,,,0.00,WUHU216HW,2012-10-09 21:32:00,
2012-10-09 14:37:00,56.9,48.6,30.06,ENE,68,2.5,4.0,74,0.00,,,0.00,WUHU216HW,2012-10-09 21:37:00,
2012-10-09 14:42:00,57.1,49.1,30.06,North,0,1.1,3.4,75,0.00,,,0.00,WUHU216HW,2012-10-09 21:42:00,
2012-10-09 14:47:00,57.1,48.8,30.06,ENE,68,2.5,3.4,74,0.00,,,0.00,WUHU216HW,2012-10-09 21:47:00,
2012-10-09 14:52:00,57.2,49.0,30.06,NE,45,2.0,4.5,74,0.00,,,0.00,WUHU216HW,2012-10-09 21:52:00,
2012-10-09 14:57:00,57.2,49.0,30.06,NNW,338,1.1,4.5,74,0.00,,,0.00,WUHU216HW,2012-10-09 21:57:00,
2012-10-09 15:02:00,57.2,49.0,30.06,NE,45,1.1,4.3,74,0.00,,,0.00,WUHU216HW,2012-10-09 22:02:00,
2012-10-09 15:07:00,57.4,49.1,30.05,East,90,0.9,2.7,74,0.00,,,0.00,WUHU216HW,2012-10-09 22:07:00,
2012-10-09 15:12:00,57.4,49.1,30.05,East,90,2.5,4.5,74,0.00,,,0.00,WUHU216HW,2012-10-09 22:12:00,
2012-10-09 15:17:00,57.6,49.3,30.05,NE,45,2.7,4.5,74,0.00,,,0.00,WUHU216HW,2012-10-09 22:17:00,
2012-10-09 15:22:00,57.6,49.3,30.05,ESE,113,1.6,3.6,74,0.00,,,0.00,WUHU216HW,2012-10-09 22:22:00,
2012-10-09 15:27:00,57.6,49.0,30.05,ESE,113,1.6,3.6,73,0.00,,,0.00,WUHU216HW,2012-10-09 22:27:00,
2012-10-09 15:32:00,57.6,49.0,30.05,NE,45,2.2,2.7,73,0.00,,,0.00,WUHU216HW,2012-10-09 22:32:00,
2012-10-09 15:37:00,57.6,49.0,30.05,NNE,23,1.8,2.9,73,0.00,,,0.00,WUHU216HW,2012-10-09 22:37:00,
2012-10-09 15:42:00,57.4,48.8,30.04,East,90,2.0,2.9,73,0.00,,,0.00,WUHU216HW,2012-10-09 22:42:00,
2012-10-09 15:47:00,57.4,48.8,30.04,East,90,1.8,3.6,73,0.00,,,0.00,WUHU216HW,2012-10-09 22:47:00,
2012-10-09 15:52:00,57.2,48.6,30.04,ENE,68,2.2,3.6,73,0.00,,,0.00,WUHU216HW,2012-10-09 22:52:00,
2012-10-09 15:57:00,57.4,48.8,30.04,NE,45,3.4,4.0,73,0.00,,,0.00,WUHU216HW,2012-10-09 22:57:00,
2012-10-09 16:02:00,57.2,48.6,30.04,ENE,68,3.4,4.5,73,0.00,,,0.00,WUHU216HW,2012-10-09 23:02:00,
2012-10-09 16:07:00,57.2,48.6,30.04,ENE,68,4.5,4.5,73,0.00,,,0.00,WUHU216HW,2012-10-09 23:07:00,
2012-10-09 16:12:00,57.1,48.4,30.04,NE,45,2.9,4.5,73,0.00,,,0.00,WUHU216HW,2012-10-09 23:12:00,
2012-10-09 16:17:00,57.1,48.4,30.04,NE,45,2.0,4.5,73,0.00,,,0.00,WUHU216HW,2012-10-09 23:17:00,
2012-10-09 16:22:00,56.9,48.2,30.04,ENE,68,4.0,4.0,73,0.00,,,0.00,WUHU216HW,2012-10-09 23:22:00,
2012-10-09 16:27:00,56.7,48.4,30.04,ENE,68,3.1,4.0,74,0.00,,,0.00,WUHU216HW,2012-10-09 23:27:00,
2012-10-09 16:32:00,56.7,48.4,30.04,NE,45,2.7,4.0,74,0.00,,,0.00,WUHU216HW,2012-10-09 23:32:00,
2012-10-09 16:37:00,56.3,48.2,30.04,NNE,23,3.4,4.3,74,0.00,,,0.00,WUHU216HW,2012-10-09 23:37:00,
2012-10-09 16:42:00,56.2,48.0,30.04,NNE,23,2.0,4.3,74,0.00,,,0.00,WUHU216HW,2012-10-09 23:42:00,
2012-10-09 16:47:00,56.0,48.2,30.04,NNE,23,2.0,3.4,75,0.00,,,0.00,WUHU216HW,2012-10-09 23:47:00,
2012-10-09 16:52:00,56.0,48.2,30.04,ENE,68,1.8,2.9,75,0.00,,,0.00,WUHU216HW,2012-10-09 23:52:00,
2012-10-09 16:57:00,55.8,48.3,30.04,NNE,23,2.5,2.9,76,0.00,,,0.00,WUHU216HW,2012-10-09 23:57:00,
2012-10-09 17:02:00,55.8,48.3,30.03,ESE,113,1.8,2.5,76,0.00,,,0.00,WUHU216HW,2012-10-10 00:02:00,
2012-10-09 17:07:00,55.6,48.2,30.03,NE,45,1.3,2.5,76,0.00,,,0.00,WUHU216HW,2012-10-10 00:07:00,
2012-10-09 17:12:00,55.8,48.3,30.03,ESE,113,1.8,2.0,76,0.00,,,0.00,WUHU216HW,2012-10-10 00:12:00,
2012-10-09 17:17:00,55.8,48.3,30.03,ENE,68,1.6,2.2,76,0.00,,,0.00,WUHU216HW,2012-10-10 00:17:00,
2012-10-09 17:22:00,55.6,48.2,30.03,East,90,1.1,2.2,76,0.00,,,0.00,WUHU216HW,2012-10-10 00:22:00,
2012-10-09 17:27:00,55.6,48.2,30.03,ENE,68,1.3,2.2,76,0.00,,,0.00,WUHU216HW,2012-10-10 00:27:00,
2012-10-09 17:32:00,55.6,48.2,30.03,ENE,68,0.9,2.2,76,0.00,,,0.00,WUHU216HW,2012-10-10 00:32:00,
2012-10-09 17:37:00,55.6,48.2,30.03,ESE,113,0.7,1.6,76,0.00,,,0.00,WUHU216HW,2012-10-10 00:37:00,
2012-10-09 17:42:00,55.4,48.0,30.03,East,90,0.0,1.1,76,0.00,,,0.00,WUHU216HW,2012-10-10 00:42:00,
2012-10-09 17:47:00,55.4,48.0,30.03,East,90,0.4,1.1,76,0.00,,,0.00,WUHU216HW,2012-10-10 00:47:00,
2012-10-09 17:52:00,55.3,47.8,30.03,NE,45,0.0,0.9,76,0.00,,,0.00,WUHU216HW,2012-10-10 00:52:00,
2012-10-09 17:57:00,55.1,47.6,30.03,NE,45,0.0,1.1,76,0.00,,,0.00,WUHU216HW,2012-10-10 00:57:00,
2012-10-09 18:02:00,55.1,47.6,30.02,NE,45,0.0,1.1,76,0.00,,,0.00,WUHU216HW,2012-10-10 01:02:00,
2012-10-09 18:07:00,54.9,47.4,30.02,NE,45,0.0,0.4,76,0.00,,,0.00,WUHU216HW,2012-10-10 01:07:00,
2012-10-09 18:12:00,54.9,47.4,30.02,NE,45,0.0,0.0,76,0.00,,,0.00,WUHU216HW,2012-10-10 01:12:00,
2012-10-09 18:17:00,54.7,47.3,30.02,NE,45,0.0,0.0,76,0.00,,,0.00,WUHU216HW,2012-10-10 01:17:00,
2012-10-09 18:22:00,54.5,47.1,30.02,NE,45,0.0,0.4,76,0.00,,,0.00,WUHU216HW,2012-10-10 01:22:00,
2012-10-09 18:27:00,54.4,46.6,30.02,NNE,23,0.0,2.2,75,0.00,,,0.00,WUHU216HW,2012-10-10 01:27:00,
2012-10-09 18:32:00,54.2,46.5,30.02,NNE,23,0.0,2.2,75,0.00,,,0.00,WUHU216HW,2012-10-10 01:32:00,
2012-10-09 18:37:00,54.0,46.3,30.02,NE,45,0.0,0.9,75,0.00,,,0.00,WUHU216HW,2012-10-10 01:37:00,
2012-10-09 18:42:00,53.8,46.5,30.02,NE,45,0.2,0.9,76,0.00,,,0.00,WUHU216HW,2012-10-10 01:42:00,
2012-10-09 18:47:00,53.6,46.3,30.02,NE,45,0.0,0.9,76,0.00,,,0.00,WUHU216HW,2012-10-10 01:47:00,
2012-10-09 18:52:00,53.6,46.3,30.02,WNW,293,0.4,0.4,76,0.00,,,0.00,WUHU216HW,2012-10-10 01:52:00,
2012-10-09 18:57:00,53.3,45.9,30.02,West,270,0.4,1.8,76,0.00,,,0.00,WUHU216HW,2012-10-10 01:57:00,
2012-10-09 19:02:00,53.1,46.1,30.02,West,270,0.7,1.8,77,0.00,,,0.00,WUHU216HW,2012-10-10 02:02:00,
2012-10-09 19:07:00,52.9,45.9,30.02,West,270,0.4,1.1,77,0.00,,,0.00,WUHU216HW,2012-10-10 02:07:00,
2012-10-09 19:12:00,52.7,45.7,30.02,West,270,0.9,0.9,77,0.00,,,0.00,WUHU216HW,2012-10-10 02:12:00,
2012-10-09 19:17:00,52.6,45.5,30.02,West,270,0.4,1.1,77,0.00,,,0.00,WUHU216HW,2012-10-10 02:17:00,
2012-10-09 19:22:00,52.4,45.4,30.02,West,270,1.3,1.3,77,0.00,,,0.00,WUHU216HW,2012-10-10 02:22:00,
2012-10-09 19:27:00,52.2,45.2,30.02,West,270,1.1,1.3,77,0.00,,,0.00,WUHU216HW,2012-10-10 02:27:00,
2012-10-09 19:32:00,52.2,45.2,30.02,West,270,0.7,1.3,77,0.00,,,0.00,WUHU216HW,2012-10-10 02:32:00,
2012-10-09 19:37:00,51.8,45.2,30.02,West,270,0.4,1.3,78,0.00,,,0.00,WUHU216HW,2012-10-10 02:37:00,
2012-10-09 19:42:00,51.7,45.0,30.02,West,270,0.0,1.1,78,0.00,,,0.00,WUHU216HW,2012-10-10 02:42:00,
2012-10-09 19:47:00,51.5,44.8,30.02,West,270,0.9,1.3,78,0.00,,,0.00,WUHU216HW,2012-10-10 02:47:00,
2012-10-09 19:52:00,51.3,44.6,30.02,West,270,0.7,1.3,78,0.00,,,0.00,WUHU216HW,2012-10-10 02:52:00,
2012-10-09 19:57:00,51.1,44.5,30.02,West,270,0.9,1.3,78,0.00,,,0.00,WUHU216HW,2012-10-10 02:57:00,
2012-10-09 20:02:00,51.1,44.5,30.02,West,270,0.9,1.3,78,0.00,,,0.00,WUHU216HW,2012-10-10 03:02:00,
2012-10-09 20:07:00,50.8,44.1,30.01,West,270,1.1,1.1,78,0.00,,,0.00,WUHU216HW,2012-10-10 03:07:00,
2012-10-09 20:12:00,50.8,44.1,30.02,West,270,1.1,1.3,78,0.00,,,0.00,WUHU216HW,2012-10-10 03:12:00,
2012-10-09 20:17:00,50.6,44.3,30.01,West,270,0.9,1.8,79,0.00,,,0.00,WUHU216HW,2012-10-10 03:17:00,
2012-10-09 20:22:00,50.4,44.1,30.02,West,270,0.9,1.8,79,0.00,,,0.00,WUHU216HW,2012-10-10 03:22:00,
2012-10-09 20:27:00,50.2,43.9,30.01,West,270,1.1,1.3,79,0.00,,,0.00,WUHU216HW,2012-10-10 03:27:00,
2012-10-09 20:32:00,50.0,43.7,30.01,West,270,0.7,1.3,79,0.00,,,0.00,WUHU216HW,2012-10-10 03:32:00,
2012-10-09 20:37:00,50.0,43.7,30.01,West,270,0.7,1.1,79,0.00,,,0.00,WUHU216HW,2012-10-10 03:37:00,
2012-10-09 20:42:00,49.7,43.7,30.01,West,270,0.4,1.1,80,0.00,,,0.00,WUHU216HW,2012-10-10 03:42:00,
2012-10-09 20:47:00,49.5,43.6,30.01,West,270,0.7,1.3,80,0.00,,,0.00,WUHU216HW,2012-10-10 03:47:00,
2012-10-09 20:52:00,49.3,43.4,30.01,West,270,1.1,1.3,80,0.00,,,0.00,WUHU216HW,2012-10-10 03:52:00,
2012-10-09 20:57:00,49.1,43.2,30.01,West,270,1.3,1.6,80,0.00,,,0.00,WUHU216HW,2012-10-10 03:57:00,
2012-10-09 21:00:00,49.1,43.2,30.01,West,270,1.6,1.6,80,0.00,,,0.00,WUHU216HW,2012-10-10 04:00:00,
2012-10-09 21:01:00,49.1,43.2,30.01,West,270,1.1,1.6,80,0.00,,,0.00,WUHU216HW,2012-10-10 04:01:00,
2012-10-09 21:06:00,49.0,43.4,30.01,West,270,0.9,1.6,81,0.00,,,0.00,WUHU216HW,2012-10-10 04:06:00,
2012-10-09 21:11:00,49.0,43.4,30.01,West,270,0.7,1.3,81,0.00,,,0.00,WUHU216HW,2012-10-10 04:11:00,
2012-10-09 21:16:00,48.8,43.2,30.01,West,270,0.4,1.1,81,0.00,,,0.00,WUHU216HW,2012-10-10 04:16:00,
2012-10-09 21:21:00,48.6,43.0,30.01,West,270,0.7,1.1,81,0.00,,,0.00,WUHU216HW,2012-10-10 04:21:00,
2012-10-09 21:26:00,48.6,43.3,30.01,West,270,0.7,0.9,82,0.00,,,0.00,WUHU216HW,2012-10-10 04:26:00,
2012-10-09 21:31:00,48.6,43.3,30.01,West,270,0.9,1.1,82,0.00,,,0.00,WUHU216HW,2012-10-10 04:31:00,
2012-10-09 21:36:00,48.4,43.1,30.01,West,270,1.1,1.1,82,0.00,,,0.00,WUHU216HW,2012-10-10 04:36:00,
2012-10-09 21:41:00,48.4,43.1,30.01,West,270,0.9,1.1,82,0.00,,,0.00,WUHU216HW,2012-10-10 04:41:00,
2012-10-09 21:46:00,48.4,43.1,30.01,West,270,0.0,1.1,82,0.00,,,0.00,WUHU216HW,2012-10-10 04:46:00,
2012-10-09 21:51:00,48.4,43.1,30.01,West,270,0.0,0.9,82,0.00,,,0.00,WUHU216HW,2012-10-10 04:51:00,
2012-10-09 21:56:00,48.4,43.1,30.01,West,270,0.0,0.0,82,0.00,,,0.00,WUHU216HW,2012-10-10 04:56:00,
2012-10-09 22:01:00,48.4,43.1,30.01,West,270,0.0,0.0,82,0.00,,,0.00,WUHU216HW,2012-10-10 05:01:00,
2012-10-09 22:06:00,48.4,43.1,30.01,West,270,0.0,0.0,82,0.00,,,0.00,WUHU216HW,2012-10-10 05:06:00,
2012-10-09 22:11:00,48.4,43.1,30.01,West,270,0.2,0.2,82,0.00,,,0.00,WUHU216HW,2012-10-10 05:11:00,
2012-10-09 22:16:00,48.6,43.3,30.01,SSE,158,0.0,0.7,82,0.00,,,0.00,WUHU216HW,2012-10-10 05:16:00,
2012-10-09 22:21:00,48.6,43.3,30.01,SSE,158,0.2,0.7,82,0.00,,,0.00,WUHU216HW,2012-10-10 05:21:00,
2012-10-09 22:26:00,48.6,43.7,30.01,SSE,158,0.0,0.4,83,0.00,,,0.00,WUHU216HW,2012-10-10 05:26:00,
2012-10-09 22:31:00,48.6,43.3,30.01,SSE,158,0.0,0.4,82,0.00,,,0.00,WUHU216HW,2012-10-10 05:31:00,
2012-10-09 22:36:00,48.6,43.7,30.01,SSW,203,0.0,0.0,83,0.00,,,0.00,WUHU216HW,2012-10-10 05:36:00,
2012-10-09 22:41:00,48.6,43.7,30.01,SSW,203,0.7,1.1,83,0.00,,,0.00,WUHU216HW,2012-10-10 05:41:00,
2012-10-09 22:46:00,48.6,43.7,30.01,SW,225,0.0,1.3,83,0.00,,,0.00,WUHU216HW,2012-10-10 05:46:00,
2012-10-09 22:51:00,48.4,43.5,30.01,SW,225,0.0,1.3,83,0.00,,,0.00,WUHU216HW,2012-10-10 05:51:00,
2012-10-09 22:56:00,48.4,43.1,30.01,SW,225,0.0,0.7,82,0.00,,,0.00,WUHU216HW,2012-10-10 05:56:00,
2012-10-09 23:01:00,48.2,42.9,30.01,SW,225,0.4,1.1,82,0.00,,,0.00,WUHU216HW,2012-10-10 06:01:00,
2012-10-09 23:06:00,48.1,42.8,30.01,SW,225,0.0,1.1,82,0.00,,,0.00,WUHU216HW,2012-10-10 06:06:00,
2012-10-09 23:11:00,48.1,42.8,30.01,SW,225,0.4,0.9,82,0.00,,,0.00,WUHU216HW,2012-10-10 06:11:00,
2012-10-09 23:16:00,47.9,42.7,30.01,WSW,248,0.9,1.1,82,0.00,,,0.00,WUHU216HW,2012-10-10 06:16:00,
2012-10-09 23:21:00,47.9,42.7,30.01,WSW,248,0.2,1.1,82,0.00,,,0.00,WUHU216HW,2012-10-10 06:21:00,
2012-10-09 23:26:00,47.9,42.7,30.01,WSW,248,0.0,1.1,82,0.00,,,0.00,WUHU216HW,2012-10-10 06:26:00,
2012-10-09 23:31:00,47.7,42.5,30.01,West,270,1.1,1.6,82,0.00,,,0.00,WUHU216HW,2012-10-10 06:31:00,
2012-10-09 23:36:00,47.5,42.3,30.01,West,270,0.4,1.6,82,0.00,,,0.00,WUHU216HW,2012-10-10 06:36:00,
2012-10-09 23:41:00,47.5,42.3,30.01,West,270,0.0,1.6,82,0.00,,,0.00,WUHU216HW,2012-10-10 06:41:00,
2012-10-09 23:46:00,47.2,41.9,30.01,West,270,0.0,1.1,82,0.00,,,0.00,WUHU216HW,2012-10-10 06:46:00,
2012-10-09 23:51:00,47.2,42.3,30.01,West,270,0.0,1.1,83,0.00,,,0.00,WUHU216HW,2012-10-10 06:51:00,
2012-10-09 23:56:00,47.2,42.3,30.01,West,270,0.0,0.9,83,0.00,,,0.00,WUHU216HW,2012-10-10 06:56:00,